Weather in Sisian

Armenia     39°31′10″N   46°01′10″E
temp.,
°C
wind,
m/s
gust,
m/s
humid.,
%
clouds,
%
prec.,
mm/h
press.,
hPa
HPBL,
m
23 april, fri
fri2301:00+7sw0182100 0.3 101713
04:00+7wnw12795 0.4 101712
07:00+7w11760 0.0 101814
10:00+13wsw47420 0.1 10171830
13:00+15wsw69340 0.0 10172215
16:00+15wsw46260 0.0 10162161
19:00+10ese346714 0.0 1019206
22:00+6ene339122 0.0 102298
24 april, sat
sat2401:00+5e238817 0.0 1022110
04:00+3e22907 0.0 102119
07:00+4ene11837 0.0 102140
10:00+12sw11486 0.0 1018545
13:00+16wsw3532100 0.0 10141936
16:00+17wsw352878 0.0 10131961
19:00+13ese114992 0.0 101431
22:00+8ene2277100 0.0 101814
25 april, sun
sun2501:00+7e228287 0.0 101921
04:00+6e22867 0.0 101915
07:00+6ene12850 0.0 101941
10:00+13ese11520 0.0 1017596
13:00+18sw35300 0.0 10142372
16:00+18sw35255 0.0 10132450
19:00+14ese22581 0.0 101471
22:00+9ne11741 0.0 101710
26 april, mon
mon2601:00+9wnw01600 0.0 101611
04:00+8nw12535 0.0 101511
07:00+9nnw11523 0.0 101512
10:00+16sw24316 0.0 10121030
13:00+19sw79285 0.0 10102556
16:00+13wnw71155100 0.2 10141644
19:00+13s225888 0.6 101247
22:00+10ene11735 0.9 101213
27 april, tue
tue2701:00+8nw11729 0.0 101211
04:00+8nnw0170100 0.0 101211
07:00+9ne116814 0.1 101311
10:00+15ese3349100 0.2 1011843
13:00+18sse3741100 0.8 10082100
16:00+14sw2661100 2.1 1009995
19:00+10e337871 2.6 1013233
22:00+8ene3394100 3.8 1016249